User: anonymous   Login
Location: *
(43.7000°S, 168.7000°W)
Time: 08:43:29
(UTC+00:00)
Language:

Cosmos 1461 - Orbit

View from above orbital plane
View from above orbital plane
View from above satellite
View from above satellite

Ground track
Ground track

The orbit data is extracted from the following two-line orbital elements,

1 14064U 83044A   20265.89553049 +.00000196 +00000-0 +30452-4 0  9996
2 14064 065.0004 190.7442 0118079 288.9668 069.8682 14.94805136901563
Epoch (UTC): 21 September 2020 21:29:33
Eccentricity: 0.0118079
inclination: 65.0004°
perigee height: 501 km
apogee height: 665 km
right ascension of ascending node: 190.7442°
argument of perigee: 288.9668°
revolutions per day: 14.94805136
mean anomaly at epoch: 69.8682°
orbit number at epoch: 90156

The dashed part of the orbit path shows where the satellite is in the earth's shadow,  

DLR